This is the latest recevied weather packets stored in our database for station/object N3DXC. If no packets are shown the sender has not sent any weather packets the latest 10 day(s).
| Time | Temp. | Humidity | Pressure | Rain* | Wind** | Luminosity | Snow |
|---|---|---|---|---|---|---|---|
| 1777912194 | 17.78° C | 43% | 1010.8 hPa | 0 mm | - | - | - |
| 1777911893 | 17.78° C | 45% | 1010.9 hPa | 0 mm | - | - | - |
| 1777911593 | 17.78° C | 46% | 1011 hPa | 0 mm | - | - | - |
| 1777911293 | 17.22° C | 46% | 1011 hPa | 0 mm | - | - | - |
| 1777910993 | 17.22° C | 47% | 1011.1 hPa | 0 mm | - | - | - |
| 1777910694 | 16.67° C | 45% | 1011.1 hPa | 0 mm | - | - | - |
| 1777910393 | 17.22° C | 45% | 1011.1 hPa | 0 mm | - | - | - |
| 1777910094 | 17.22° C | 47% | 1011.2 hPa | 0 mm | - | - | - |
| 1777909793 | 17.22° C | 45% | 1011.2 hPa | 0 mm | - | - | - |
| 1777909493 | 16.67° C | 46% | 1011.2 hPa | 0 mm | - | - | - |
| 1777909193 | 16.67° C | 48% | 1011.3 hPa | 0 mm | - | - | - |
| 1777908893 | 16.67° C | 46% | 1011.2 hPa | 0 mm | - | - | - |
| 1777908593 | 16.11° C | 48% | 1011.3 hPa | 0 mm | - | - | - |
| 1777908293 | 16.11° C | 47% | 1011.3 hPa | 0 mm | - | - | - |
| 1777907993 | 16.11° C | 49% | 1011.4 hPa | 0 mm | - | - | - |
| 1777907693 | 16.11° C | 46% | 1011.4 hPa | 0 mm | - | - | - |
| 1777907393 | 16.11° C | 50% | 1011.4 hPa | 0 mm | - | - | - |
| 1777907094 | 15.56° C | 48% | 1011.3 hPa | 0 mm | - | - | - |
| 1777906793 | 15° C | 48% | 1011.4 hPa | 0 mm | - | - | - |
| 1777906494 | 15° C | 47% | 1011.6 hPa | 0 mm | - | - | - |
| 1777906193 | 15° C | 50% | 1011.4 hPa | 0 mm | - | - | - |
| 1777905894 | 15° C | 48% | 1011.4 hPa | 0 mm | - | - | - |
| 1777905593 | 15° C | 48% | 1011.4 hPa | 0 mm | - | - | - |
| 1777905293 | 15° C | 48% | 1011.7 hPa | 0 mm | - | - | - |
| 1777904995 | 14.44° C | 50% | 1011.7 hPa | 0 mm | - | - | - |
* Rain latest hour (hover to see other rain measurements)
** Current wind speed in m/s (hover to see current wind gust speed)